Location: Heidgraben
(53.7081°N, 9.6576°E)
Time: 10:54:09
(UTC+00:00)

Cosmos 2219 Rocket - Pass Details

Date: 05 July 2020
Orbit: 827 x 847 km, 71.0° (Epoch: 05 August)

Event Time Altitude Azimuth Distance (km) Brightness Sun altitude
Rises 20:32:02 0° 179° (S) 3,356 4.8 -4.9°
Reaches altitude 10° 20:34:38 10° 170° (S) 2,429 4.1 -5.1°
Maximum altitude 20:39:35 34° 108° (ESE) 1,343 2.9 -5.6°
Drops below altitude 10° 20:44:35 10° 45° (NE) 2,453 4.7 -6.0°
Sets 20:47:13 0° 36° (NE) 3,395 5.6 -6.3°
